| time (UTC) | temp C | wind direction | speed KPH | gust KPH | rain 1hr cm | rain 24hr cm | rain mn cm | humidity % | barometer mb |
| 20260506031517 | 6 | 45 | 6.4 | 12.9 | 0.00 | 0.00 | 0.00 | 84 | 1016.3 |
| 20260506030517 | 6 | 45 | 6.4 | 11.3 | 0.00 | 0.00 | 0.00 | 84 | 1016.2 |
| 20260506025537 | 6 | 45 | 4.8 | 12.9 | 0.00 | 0.00 | 0.00 | 84 | 1016.3 |
| 20260506024537 | 6 | 45 | 4.8 | 9.7 | 0.00 | 0.00 | 0.00 | 84 | 1016.2 |
| 20260506023516 | 6 | 45 | 4.8 | 6.4 | 0.00 | 0.00 | 0.00 | 83 | 1016.2 |
| 20260506022516 | 6 | 45 | 3.2 | 8.0 | 0.00 | 0.00 | 0.00 | 83 | 1016.2 |
| 20260506021517 | 6 | 45 | 4.8 | 9.7 | 0.00 | 0.00 | 0.00 | 83 | 1016.3 |
| 20260506020516 | 6 | 45 | 3.2 | 8.0 | 0.00 | 0.00 | 0.00 | 82 | 1016.3 |
| 20260506015517 | 6 | 45 | 4.8 | 9.7 | 0.00 | 0.00 | 0.00 | 82 | 1016.4 |
| 20260506014556 | 7 | 45 | 3.2 | 9.7 | 0.00 | 0.00 | 0.00 | 81 | 1016.4 |
| 20260506013517 | 7 | 45 | 6.4 | 14.5 | 0.00 | 0.00 | 0.00 | 81 | 1016.5 |
| 20260506012516 | 7 | 45 | 4.8 | 12.9 | 0.00 | 0.00 | 0.00 | 80 | 1016.4 |
| 20260506011517 | 7 | 45 | 8.0 | 14.5 | 0.00 | 0.00 | 0.00 | 80 | 1016.4 |
| 20260506010517 | 7 | 45 | 8.0 | 16.1 | 0.00 | 0.00 | 0.00 | 79 | 1016.5 |
| 20260506005517 | 7 | 45 | 8.0 | 17.7 | 0.00 | 0.00 | 0.00 | 79 | 1016.4 |
| 20260506004516 | 7 | 45 | 14.5 | 22.5 | 0.00 | 0.00 | 0.00 | 79 | 1016.4 |
| 20260506003516 | 7 | 45 | 8.0 | 16.1 | 0.00 | 0.00 | 0.00 | 80 | 1016.3 |
| 20260506002517 | 7 | 45 | 9.7 | 19.3 | 0.00 | 0.00 | 0.00 | 79 | 1016.4 |
| 20260506001518 | 7 | 45 | 11.3 | 19.3 | 0.00 | 0.00 | 0.00 | 79 | 1016.4 |
| 20260506000516 | 7 | 45 | 11.3 | 20.9 | 0.00 | 0.00 | 0.00 | 79 | 1016.5 |
| 20260505235518 | 7 | 45 | 12.9 | 20.9 | 0.00 | 0.00 | 0.00 | 81 | 1016.5 |
| 20260505234516 | 7 | 45 | 8.0 | 14.5 | 0.00 | 0.00 | 0.00 | 82 | 1016.5 |
| 20260505233518 | 7 | 45 | 8.0 | 12.9 | 0.00 | 0.00 | 0.00 | 82 | 1016.6 |
| 20260505232516 | 8 | 45 | 6.4 | 9.7 | 0.00 | 0.00 | 0.00 | 81 | 1016.6 |
| 20260505231516 | 8 | 45 | 6.4 | 17.7 | 0.00 | 0.00 | 0.00 | 81 | 1016.6 |
| 20260505230518 | 8 | 45 | 8.0 | 16.1 | 0.00 | 0.00 | 0.00 | 80 | 1016.8 |
| 20260505225516 | 8 | 45 | 9.7 | 20.9 | 0.00 | 0.00 | 0.00 | 80 | 1016.8 |
| 20260505224516 | 8 | 45 | 9.7 | 16.1 | 0.00 | 0.00 | 0.00 | 82 | 1016.7 |
| 20260505223518 | 8 | 45 | 9.7 | 19.3 | 0.00 | 0.00 | 0.00 | 82 | 1016.7 |
| 20260505222536 | 8 | 45 | 8.0 | 16.1 | 0.00 | 0.00 | 0.00 | 82 | 1016.7 |
| 20260505221538 | 8 | 45 | 4.8 | 11.3 | 0.00 | 0.00 | 0.00 | 81 | 1016.7 |
| 20260505220516 | 8 | 45 | 6.4 | 16.1 | 0.00 | 0.00 | 0.00 | 81 | 1016.6 |
| 20260505215518 | 8 | 45 | 6.4 | 17.7 | 0.00 | 0.00 | 0.00 | 80 | 1016.6 |
| 20260505214518 | 8 | 45 | 8.0 | 17.7 | 0.00 | 0.00 | 0.00 | 79 | 1016.7 |
| 20260505213516 | 9 | 45 | 9.7 | 20.9 | 0.00 | 0.00 | 0.00 | 78 | 1016.7 |
| 20260505212538 | 9 | 45 | 4.8 | 17.7 | 0.00 | 0.00 | 0.00 | 78 | 1016.6 |
| 20260505211516 | 9 | 45 | 11.3 | 24.1 | 0.00 | 0.00 | 0.00 | 77 | 1016.6 |
| 20260505210516 | 9 | 45 | 9.7 | 22.5 | 0.00 | 0.00 | 0.00 | 80 | 1016.4 |
| 20260505205516 | 10 | 45 | 8.0 | 16.1 | 0.00 | 0.00 | 0.00 | 83 | 1016.4 |
| 20260505204516 | 10 | 45 | 9.7 | 17.7 | 0.00 | 0.00 | 0.00 | 82 | 1016.2 |
| 20260505203517 | 10 | 45 | 9.7 | 25.7 | 0.00 | 0.00 | 0.00 | 82 | 1016.1 |
| 20260505202516 | 10 | 45 | 11.3 | 22.5 | 0.00 | 0.00 | 0.00 | 82 | 1016.0 |
| 20260505201516 | 10 | 45 | 11.3 | 22.5 | 0.00 | 0.00 | 0.00 | 81 | 1016.0 |
| 20260505200558 | 10 | 45 | 11.3 | 20.9 | 0.00 | 0.00 | 0.00 | 81 | 1015.9 |
| 20260505195516 | 10 | 45 | 11.3 | 17.7 | 0.00 | 0.00 | 0.00 | 81 | 1015.9 |
| 20260505194518 | 10 | 45 | 9.7 | 19.3 | 0.00 | 0.00 | 0.00 | 81 | 1015.7 |
| 20260505193537 | 10 | 68 | 8.0 | 22.5 | 0.00 | 0.00 | 0.00 | 80 | 1015.7 |
| 20260505192516 | 10 | 45 | 9.7 | 16.1 | 0.00 | 0.00 | 0.00 | 80 | 1015.6 |
| 20260505191557 | 10 | 45 | 12.9 | 20.9 | 0.00 | 0.00 | 0.00 | 80 | 1015.5 |
| 20260505190519 | 11 | 45 | 12.9 | 29.0 | 0.00 | 0.00 | 0.00 | 79 | 1015.3 |
| 20260505185516 | 11 | 45 | 16.1 | 25.7 | 0.00 | 0.00 | 0.00 | 77 | 1015.2 |
| 20260505184516 | 12 | 45 | 14.5 | 27.4 | 0.00 | 0.00 | 0.00 | 75 | 1015.0 |
| 20260505183516 | 12 | 45 | 8.0 | 14.5 | 0.00 | 0.00 | 0.00 | 68 | 1014.9 |
| 20260505182516 | 12 | 45 | 6.4 | 12.9 | 0.00 | 0.00 | 0.00 | 68 | 1014.7 |
| 20260505181516 | 12 | 45 | 9.7 | 19.3 | 0.00 | 0.00 | 0.00 | 67 | 1014.7 |
| 20260505180516 | 12 | 45 | 8.0 | 16.1 | 0.00 | 0.00 | 0.00 | 68 | 1014.7 |
| 20260505175517 | 12 | 45 | 11.3 | 19.3 | 0.00 | 0.00 | 0.00 | 66 | 1014.7 |
| 20260505174516 | 13 | 45 | 8.0 | 16.1 | 0.00 | 0.00 | 0.00 | 66 | 1014.7 |
| 20260505173516 | 13 | 23 | 6.4 | 14.5 | 0.00 | 0.00 | 0.00 | 64 | 1014.7 |
| 20260505172516 | 13 | 45 | 6.4 | 12.9 | 0.00 | 0.00 | 0.00 | 63 | 1014.7 |
| 20260505171516 | 13 | 45 | 6.4 | 14.5 | 0.00 | 0.00 | 0.00 | 63 | 1014.7 |
| 20260505170535 | 13 | 45 | 4.8 | 11.3 | 0.00 | 0.00 | 0.00 | 63 | 1014.8 |
| 20260505165536 | 13 | 45 | 6.4 | 11.3 | 0.00 | 0.00 | 0.00 | 62 | 1014.8 |
| 20260505164516 | 13 | 23 | 6.4 | 14.5 | 0.00 | 0.00 | 0.00 | 62 | 1014.9 |
| 20260505163515 | 13 | 0 | 6.4 | 12.9 | 0.00 | 0.00 | 0.00 | 61 | 1014.8 |
| 20260505162515 | 13 | 45 | 3.2 | 8.0 | 0.00 | 0.00 | 0.00 | 65 | 1014.8 |
| 20260505161516 | 13 | 45 | 8.0 | 14.5 | 0.00 | 0.00 | 0.00 | 63 | 1014.8 |
| 20260505160515 | 13 | 45 | 6.4 | 11.3 | 0.00 | 0.00 | 0.00 | 63 | 1014.9 |
| 20260505152536 | 13 | 45 | 4.8 | 12.9 | 0.00 | 0.00 | 0.00 | 65 | 1015.1 |
| 20260505151515 | 13 | 23 | 4.8 | 11.3 | 0.00 | 0.00 | 0.00 | 65 | 1015.0 |
| 20260505150515 | 14 | 0 | 6.4 | 12.9 | 0.00 | 0.00 | 0.00 | 64 | 1015.1 |
| 20260505140515 | 14 | 23 | 6.4 | 16.1 | 0.00 | 0.00 | 0.00 | 65 | 1015.2 |
| 20260505124537 | 13 | 23 | 6.4 | 16.1 | 0.00 | 0.00 | 0.00 | 67 | 1015.4 |
| 20260505123517 | 13 | 0 | 8.0 | 14.5 | 0.00 | 0.00 | 0.00 | 67 | 1015.4 |
| 20260505122537 | 13 | 45 | 9.7 | 19.3 | 0.00 | 0.00 | 0.00 | 67 | 1015.4 |
| 20260505121537 | 13 | 0 | 8.0 | 17.7 | 0.00 | 0.00 | 0.00 | 67 | 1015.3 |
| 20260505120537 | 13 | 45 | 6.4 | 14.5 | 0.00 | 0.00 | 0.00 | 68 | 1015.4 |
| 20260505115537 | 13 | 45 | 6.4 | 12.9 | 0.00 | 0.00 | 0.00 | 66 | 1015.3 |
| 20260505114517 | 13 | 23 | 8.0 | 16.1 | 0.00 | 0.00 | 0.00 | 67 | 1015.5 |
| 20260505113537 | 13 | 45 | 6.4 | 11.3 | 0.00 | 0.00 | 0.00 | 67 | 1015.4 |
| 20260505112517 | 13 | 45 | 6.4 | 9.7 | 0.00 | 0.00 | 0.00 | 69 | 1015.4 |
| 20260505111517 | 13 | 0 | 6.4 | 12.9 | 0.00 | 0.00 | 0.00 | 68 | 1015.5 |
| 20260505110517 | 14 | 23 | 6.4 | 12.9 | 0.00 | 0.00 | 0.00 | 67 | 1015.5 |
| 20260505101517 | 13 | 23 | 4.8 | 9.7 | 0.00 | 0.00 | 0.00 | 71 | 1015.8 |
| 20260505100557 | 14 | 23 | 4.8 | 12.9 | 0.00 | 0.00 | 0.00 | 69 | 1015.8 |
| 20260505095517 | 14 | 293 | 6.4 | 12.9 | 0.00 | 0.00 | 0.00 | 69 | 1015.9 |
| 20260505094517 | 15 | 45 | 4.8 | 9.7 | 0.00 | 0.00 | 0.00 | 63 | 1015.8 |
| 20260505093517 | 15 | 45 | 8.0 | 14.5 | 0.00 | 0.00 | 0.00 | 63 | 1015.9 |
| 20260505092517 | 15 | 45 | 6.4 | 12.9 | 0.00 | 0.00 | 0.00 | 64 | 1015.9 |
| 20260505091517 | 15 | 23 | 4.8 | 11.3 | 0.00 | 0.00 | 0.00 | 67 | 1015.9 |
| 20260505090517 | 15 | 23 | 8.0 | 16.1 | 0.00 | 0.00 | 0.00 | 66 | 1015.9 |
| 20260505085517 | 15 | 23 | 6.4 | 12.9 | 0.00 | 0.00 | 0.00 | 69 | 1015.9 |
| 20260505084516 | 14 | 23 | 6.4 | 12.9 | 0.00 | 0.00 | 0.00 | 70 | 1016.0 |
| 20260505083517 | 13 | 23 | 6.4 | 12.9 | 0.00 | 0.00 | 0.00 | 73 | 1016.0 |
| 20260505082557 | 12 | 23 | 4.8 | 11.3 | 0.00 | 0.00 | 0.00 | 76 | 1016.0 |
| 20260505081537 | 12 | 23 | 4.8 | 9.7 | 0.00 | 0.00 | 0.00 | 79 | 1016.1 |
| 20260505080517 | 12 | 0 | 3.2 | 8.0 | 0.00 | 0.00 | 0.00 | 80 | 1016.2 |
| 20260505075517 | 12 | 0 | 3.2 | 11.3 | 0.00 | 0.00 | 0.00 | 79 | 1016.3 |
| 20260505074517 | 11 | 0 | 4.8 | 6.4 | 0.00 | 0.00 | 0.00 | 83 | 1016.1 |
| 20260505073516 | 10 | 23 | 3.2 | 8.0 | 0.00 | 0.00 | 0.00 | 85 | 1016.1 |
| 20260505072517 | 9 | 293 | 4.8 | 8.0 | 0.00 | 0.00 | 0.00 | 88 | 1016.1 |
| 20260505071517 | 8 | 0 | 4.8 | 6.4 | 0.00 | 0.00 | 0.00 | 88 | 1016.1 |
| 20260505070536 | 9 | 293 | 3.2 | 6.4 | 0.00 | 0.00 | 0.00 | 88 | 1016.1 |
| 20260505065536 | 9 | 293 | 3.2 | 6.4 | 0.00 | 0.00 | 0.00 | 89 | 1016.3 |
| 20260505064517 | 8 | 0 | 3.2 | 6.4 | 0.00 | 0.00 | 0.00 | 89 | 1016.2 |
| 20260505063516 | 8 | 293 | 3.2 | 6.4 | 0.00 | 0.00 | 0.00 | 90 | 1016.4 |
| 20260505062516 | 8 | 0 | 3.2 | 4.8 | 0.00 | 0.00 | 0.00 | 93 | 1016.2 |
| 20260505061516 | 7 | 315 | 1.6 | 3.2 | 0.00 | 0.00 | 0.00 | 94 | 1016.1 |
| 20260505060516 | 7 | 293 | 1.6 | 4.8 | 0.00 | 0.00 | 0.00 | 94 | 1016.2 |
| 20260505055536 | 6 | 0 | 3.2 | 4.8 | 0.00 | 0.00 | 0.00 | 94 | 1016.1 |
| 20260505054516 | 6 | 23 | 4.8 | 12.9 | 0.00 | 0.00 | 0.00 | 95 | 1016.1 |
| 20260505053516 | 6 | 0 | 3.2 | 6.4 | 0.00 | 0.00 | 0.00 | 95 | 1016.0 |
| 20260505052516 | 6 | 0 | 3.2 | 6.4 | 0.00 | 0.00 | 0.00 | 95 | 1016.2 |
| 20260505051516 | 6 | 315 | 1.6 | 4.8 | 0.00 | 0.00 | 0.00 | 95 | 1016.1 |
| 20260505050516 | 6 | 0 | 1.6 | 4.8 | 0.00 | 0.00 | 0.00 | 95 | 1016.1 |
| 20260505041516 | 6 | 293 | 3.2 | 6.4 | 0.00 | 0.00 | 0.00 | 94 | 1016.0 |
| 20260505040516 | 6 | 293 | 3.2 | 9.7 | 0.00 | 0.00 | 0.00 | 94 | 1015.9 |
| 20260505035518 | 6 | 0 | 1.6 | 4.8 | 0.00 | 0.00 | 0.00 | 93 | 1015.9 |
| 20260505034517 | 6 | 315 | 3.2 | 6.4 | 0.00 | 0.00 | 0.00 | 93 | 1015.9 |
| 20260505033516 | 6 | 293 | 3.2 | 6.4 | 0.00 | 0.00 | 0.00 | 93 | 1015.9 |
| 20260505032517 | 6 | 315 | 3.2 | 6.4 | 0.00 | 0.00 | 0.00 | 93 | 1016.0 |